Regional Weather Roundup
Issued by NWS

Home | Current Version | Previous Version | Graphics & Text | Print | Product List | Glossary Off
Versions: 1 2 3 4 5 6 7 8 9 10 11 12 13 14 15 16 17 18 19 20 21 22 23 24 25 26 27 28 29 30 31 32 33 34 35 36 37 38 39 40 41 42 43 44 45 46 47 48 49 50

000
ASUS43 KDMX 272301
RWRIA

WEATHER ROUNDUP FOR IOWA
NATIONAL WEATHER SERVICE DES MOINES IA
600 PM CDT THU JUL 27 2017

NOTE: "FAIR" INDICATES FEW OR NO CLOUDS BELOW 12,000 FEET WITH NO
SIGNIFICANT WEATHER AND/OR OBSTRUCTIONS TO VISIBILITY.

* - THESE STATIONS ARE NOT NWS STATIONS...THUS NOT UNDER NWS
QUALITY CONTROL.  THEY ALSO DO NOT REPORT WEATHER SUCH
AS PRECIPITATION OR FOG.

IAZ001>003-012>014-020>022-031>034-043>046-280000-
   NORTHWEST IOWA

CITY           SKY/WX    TMP DP  RH WIND       PRES   REMARKS
CARROLL *      MOSUNNY   82  64  54 NE9       30.01S HX  84
CHEROKEE *     SUNNY     81  59  46 N9        30.03F HX  82
DENISON *      MOSUNNY   81  63  54 NE8G14    30.03F HX  82
ORANGE CITY *  MOSUNNY   82  61  47 NE6       30.05F HX  83
SHELDON *      MOSUNNY   81  61  50 NE6G13    30.04S HX  81
SIOUX CITY     MOSUNNY   85  61  44 NE10      30.02F HX  85
SPENCER        SUNNY     83  59  44 NE10      30.04F HX  83
STORM LAKE *   SUNNY     79  63  57 NE12      30.04F HX  80
$$

IAZ055>058-069>071-079>083-090>094-280000-
   SOUTHWEST IOWA

CITY           SKY/WX    TMP DP  RH WIND       PRES   REMARKS
ATLANTIC *     MOSUNNY   81  63  54 NE12G17   30.00S HX  82
AUDUBON *      SUNNY     81  64  57 NE7       30.02F HX  82
CLARINDA *     SUNNY     82  68  61 N13       29.99F HX  85
COUNCIL BLFS * PTSUNNY   81  64  57 NE7G13    30.01F HX  82
CRESTON *      MOSUNNY   84  63  48 N13       29.99F HX  85
HARLAN  *      MOSUNNY   82  63  51 NE10      30.04F HX  83
LAMONI         MOSUNNY   88  67  49 NE14      29.95F HX  91
RED OAK *      SUNNY     82  64  54 N8        30.00S HX  84
SHENANDOAH *   SUNNY     82  66  57 N9        29.99F HX  85
$$

IAZ047>049-059>061-072>074-084-280000-
   CENTRAL IOWA

CITY           SKY/WX    TMP DP  RH WIND       PRES   REMARKS
AMES           SUNNY     83  62  49 NE10      29.99F HX  84
ANKENY *       SUNNY     82  59  44 NE10G17   29.99F HX  82
BOONE *        SUNNY     82  61  47 NE10      30.00F HX  83
CHARITON *     SUNNY     84  64  51 NE14      29.95F HX  86
DES MOINES     MOSUNNY   85  59  41 NE15G21   29.97F HX  84
GRINNELL*      MOSUNNY   81  60  48 NE10G16   29.99F HX  81
KNOXVILLE *    SUNNY     84  61  45 N12G18    29.95F HX  84
MARSHALLTOWN   MOSUNNY   81  62  52 NE7       29.99S HX  82
NEWTON *       SUNNY     81  61  50 N10       29.98F HX  81
PELLA *        SUNNY     86  59  39 NE5       29.97F HX  85
PERRY *          N/A     83  58  42 NE9       30.00F HX  83
$$

IAZ004>006-015-016-023>025-035-036-280000-
   NORTH CENTRAL IOWA

CITY           SKY/WX    TMP DP  RH WIND       PRES   REMARKS
ALGONA *       SUNNY     81  64  57 NE9       30.03F HX  82
ESTHERVILLE    SUNNY     80  62  54 N9        30.04F HX  81
FORT DODGE *   SUNNY     82  61  47 NE7       30.02F HX  83
MASON CITY     SUNNY     77  64  64 N6        30.03F
FOREST CITY *    N/A     79  61  53 N6        30.03S HX  80
WEBSTER CITY * MOSUNNY   82  63  51 NE8       29.99F HX  83
IOWA FALLS *     N/A     82  62  51 NE8       30.02F HX  83
$$

IAZ007>011-017>019-026>030-037>042-050>054-066-280000-
   NORTHEAST IOWA

CITY           SKY/WX    TMP DP  RH WIND       PRES   REMARKS
CEDAR RAPIDS   MOSUNNY   82  64  54 NE9       29.95F HX  84
CHARLES CITY * SUNNY     79  63  57 N6        30.01F HX  80
DECORAH *      SUNNY     81  61  50 VRB5      30.00S HX  81
DUBUQUE        MOSUNNY   79  62  56 NE10      29.98F HX  80
MONTICELLO *   SUNNY     82  63  51 NE8G15    29.96F HX  83
OELWEIN *      MOSUNNY   81  64  57 NE7G13    30.00F HX  82
WATERLOO       SUNNY     82  63  52 NE10      29.98F HX  83
$$

IAZ064-065-067-068-078-280000-
   EAST CENTRAL IOWA

CITY           SKY/WX    TMP DP  RH WIND       PRES   REMARKS
DAVENPORT      SUNNY     79  68  69 NE13      29.95F HX  81
IOWA CITY      SUNNY     85  65  51 NE12      29.96S HX  86
MUSCATINE *    SUNNY     84  68  58 NE12      29.93S HX  87
QUAD CITIES    MOSUNNY   83  68  60 NE13      29.92F HX  86
$$

IAZ062-063-075>077-085>089-095>099-280000-
   SOUTHEAST IOWA

CITY           SKY/WX    TMP DP  RH WIND       PRES   REMARKS
BURLINGTON     MOSUNNY   83  72  69 N12       29.92S HX  88
FAIRFIELD *    SUNNY     84  63  48 N14G20    29.94S HX  85
FORT MADISON * MOSUNNY   82  72  69 N9        29.93S HX  87
KEOKUK *       MOSUNNY   84  70  61 N9G15     29.91S HX  88
OSKALOOSA *      N/A     84  63  48 N9        29.96S HX  85
OTTUMWA        SUNNY     87  64  46 N14       29.94S HX  88
WASHINGTON *   SUNNY     82  68  61 NE10G16   29.96R HX  85
$$

ABBREVIATIONS USED IN REMARKS
   TC - TEMPERATURES IN CELSIUS
  WCI - WIND CHILL INDEX
   HX - HEAT INDEX
  VSB - VISIBILITY
$$





USA.gov is the U.S. government's official web portal to all federal, state and local government web resources and services.